[[{"header":{"parameterUnit":"m.s-1","parameterCategory":1,"la1":30.2991,"la2":30.254,"lo1":-89.0895,"lo2":-89.0444,"dy":0.0017,"dx":0.0017,"nx":28,"ny":28,"refTime":"2023-08-15T09:00:00:Z","depth":0,"parameterNumber":2,"parameterNumberName":"U-component_of_WINDS"},"data":[0,0,0,0,0,0,0,0,0,0,0,0,0,0,0,0,0,0,0,0,0,0,0,0,0,0,0,0,0,0,0,0,0,0,0,0,0,0,0,0,0,0,0,0,0,0,0,0,0,0,0,0,0,0,0,0,0,0,1.9115,1.9117,0,1.9269,1.9271,1.9273,1.9194,1.919,1.9185,1.9182,1.9344,1.9352,1.936,0,0,0,0,0,0,0,0,0,0,0,0,0,1.8756,1.8763,1.9115,1.9117,1.9119,1.9269,1.9271,1.9273,1.9194,1.9189,1.9184,1.918,1.9342,1.9351,1.9361,0,0,0,0,0,0,0,0,0,0,0,0,0,1.8911,1.8765,1.9115,1.9098,1.9098,1.9268,1.9271,1.9274,1.9195,1.9189,1.9183,1.9177,1.9338,1.935,1.9362,1.9561,0,0,1.94,1.9405,0,0,0,0,0,0,0,0,1.8902,1.8924,1.9098,1.9099,1.9099,1.9206,1.9204,1.937,1.9197,1.9158,1.9181,1.9174,1.9303,1.9318,1.9361,1.9568,1.9575,1.9401,1.9408,1.9413,1.9417,0,0,0,0,0,0,0,1.8892,1.8917,1.9176,1.9101,1.9102,1.9083,1.9098,1.9235,1.9264,1.9161,1.9156,1.9175,1.9303,1.9349,1.9364,1.9577,1.94,1.9411,1.9419,1.9424,1.9956,1.9962,0,0,0,0,0,0,1.8881,1.8909,1.9171,1.9181,1.8983,1.9094,1.9112,1.9178,1.9262,1.9269,1.918,1.9171,1.9331,1.935,1.9369,1.9609,1.9413,1.9425,1.9432,1.9949,1.9957,1.9964,0,0,0,0,0,0,1.8874,1.8905,1.9165,1.9043,1.9075,1.9107,1.9182,1.9184,1.9231,1.9276,1.9281,1.9222,1.9327,1.9352,1.9513,1.9614,1.943,1.9441,1.9941,1.9951,1.9961,2.009,0,0,0,0,0,0,1.8864,1.8903,1.8979,1.9046,1.9082,1.9307,1.9188,1.9192,1.9251,1.9241,1.9317,1.9324,1.9324,1.9496,1.9526,1.9627,1.9451,1.9932,1.9946,1.9958,2.0077,2.0103,2.0125,0,0,0,0,0,1.8851,1.901,1.8983,1.9015,1.9177,1.9312,1.9333,1.9329,1.926,1.9337,1.9365,1.9321,1.9596,1.9513,1.9546,1.9653,1.9926,1.9942,1.9957,2.0066,2.0098,2.0125,0,0,0,0,0,0,1.8957,1.9019,1.899,1.9174,1.9238,1.9299,1.9396,1.9363,1.945,1.9437,1.9429,1.9447,1.9615,1.9648,1.9555,1.9849,1.975,1.9773,1.9822,1.9853,1.9877,1.9868,1.9461,0,0,0,0,0,1.9001,1.9105,1.9153,1.9311,1.9345,1.9365,1.9424,1.9414,1.9481,1.9509,1.9549,1.9617,1.9719,1.9786,1.9882,2.0078,2.0095,2.0168,2.0192,2.0212,2.0234,2.0342,2.0376,2.0015,2.0015,2.0014,0,0,1.9095,1.9141,1.9208,1.9334,1.9383,1.9492,1.9389,1.9509,1.959,1.9528,1.9684,1.9715,1.9789,1.997,2.0051,2.0003,2.0336,2.0231,2.0247,2.0258,2.0361,2.0395,2.0426,2.0025,2.0023,2.0022,0,0,1.9323,1.9366,1.9504,1.9554,1.9628,1.9639,1.9672,1.9737,1.9755,1.991,1.9865,1.9961,2.0136,2.0192,2.0243,2.0487,2.0452,2.0518,2.0649,2.0754,2.0782,2.0808,2.0899,2.0931,2.0538,2.0538,2.0539,0,1.9432,1.9594,1.958,1.9703,1.9761,1.9705,1.9845,1.9894,1.9997,2.0038,1.9981,2.0199,2.0245,2.0439,2.0498,2.0539,2.0579,2.0513,2.0779,2.0804,2.0828,2.0915,2.0948,2.0546,2.0546,2.0545,2.0544,0,1.9725,1.9837,1.9939,2.0038,2.0106,2.0237,2.0244,2.0315,2.0297,2.0315,2.0473,2.0525,2.0632,2.0675,2.066,2.0867,2.0835,2.0778,2.0681,2.087,2.0952,2.0985,2.0558,2.0555,2.0553,2.0551,0,0,2.0032,2.0116,2.0155,2.0199,2.0274,2.0362,2.0489,2.0591,2.0653,2.0723,2.0833,2.0979,2.0927,2.0985,2.0975,2.1066,2.1261,2.0999,2.1001,2.1051,2.1495,2.1542,2.158,2.1233,2.124,2.1245,2.149,0,2.0269,2.0493,2.0482,2.0692,2.0797,2.0742,2.0854,2.0912,2.0931,2.1023,2.1042,2.1149,2.1069,2.1104,2.1191,2.1219,2.1351,2.12,2.1339,2.1345,2.133,2.1622,2.1673,2.1902,2.1521,2.1527,2.1531,0,2.0578,2.0657,2.0878,2.0936,2.0979,2.108,2.1172,2.1259,2.1324,2.1331,2.1393,2.1368,2.1498,2.139,2.1571,2.1469,2.1524,2.1545,2.1554,2.1573,2.1455,2.1655,2.1975,2.2012,2.158,2.1576,2.1572,0,2.0786,2.0947,2.11,2.1138,2.1209,2.1281,2.1314,2.1372,2.1434,2.1513,2.1553,2.1647,2.17,2.1773,2.1774,2.1695,2.1958,2.185,2.1971,2.1971,2.2035,2.2033,2.2375,2.2059,2.2059,2.2058,2.2057,0,2.1056,2.1195,2.1194,2.129,2.1442,2.1427,2.1579,2.1604,2.1656,2.1756,2.1711,2.1806,2.1798,2.1893,2.1893,2.2045,2.2068,2.2079,2.2079,2.2088,2.2087,2.2129,2.2116,2.2067,2.2065,2.2064,2.2062,0,2.1318,2.1323,2.1487,2.1538,2.1554,2.1666,2.171,2.1801,2.1811,2.1939,2.1967,2.1987,2.2097,2.2102,2.2229,2.2229,2.2415,2.2394,2.2394,2.2393,2.2515,2.2506,2.2902,2.2955,2.2599,2.2602,2.2605,0,2.1494,2.1599,2.1661,2.1723,2.176,2.1862,2.1923,2.191,2.1976,2.2056,2.2138,2.2242,2.2327,2.2505,2.2532,2.2628,2.2613,2.2744,2.2628,2.2633,2.2622,2.2618,2.263,2.277,2.2774,2.2777,2.278,0,2.1808,2.1804,2.1893,2.1984,2.2058,2.2129,2.2195,2.2248,2.2243,2.2319,2.243,2.2495,2.2623,2.2729,2.2822,2.2857,2.282,2.2815,2.2849,2.2863,2.2861,2.2869,2.2463,2.2808,2.2805,2.2803,2.2802,2.2801,2.2037,2.2127,2.2185,2.2286,2.2333,2.2395,2.2482,2.2503,2.2595,2.2698,2.2683,2.2807,2.2867,2.2988,2.303,2.3127,2.3083,2.3131,2.3144,2.3158,2.3174,2.2838,2.3143,2.3143,2.3142,2.3141,2.3141,0,2.2353,2.2385,2.2478,2.257,2.265,2.2601,2.267,2.2741,2.2851,2.2908,2.2991,2.3119,2.322,2.3252,2.335,2.3423,2.3408,2.345,2.3448,2.3457,2.3206,2.3169,2.346,2.346,2.346,2.346,2.346,2.346,2.2527,2.268,2.2682,2.2856,2.2888,2.3009,2.3053,2.3109,2.3156,2.33,2.3383,2.3401,2.3449,2.355,2.3642,2.3648,2.3689,2.374,2.374,2.3506,2.3475,2.3444,2.341,2.3747,2.3747,2.3984,2.3986,2.3988]},{"header":{"parameterUnit":"m.s-1","parameterCategory":1,"la1":30.2991,"la2":30.254,"lo1":-89.0895,"lo2":-89.0444,"dy":0.0017,"dx":0.0017,"nx":28,"ny":28,"refTime":"2023-08-15T09:00:00:Z","depth":0,"parameterNumber":3,"parameterNumberName":"V-component_of_WINDS"},"data":[0,0,0,0,0,0,0,0,0,0,0,0,0,0,0,0,0,0,0,0,0,0,0,0,0,0,0,0,0,0,0,0,0,0,0,0,0,0,0,0,0,0,0,0,0,0,0,0,0,0,0,0,0,0,0,0,0,0,2.1681,2.1684,0,2.1935,2.1938,2.1941,2.1904,2.19,2.1896,2.1892,2.2153,2.2164,2.2175,0,0,0,0,0,0,0,0,0,0,0,0,0,2.1164,2.1174,2.1681,2.1684,2.1687,2.1934,2.1938,2.1941,2.1905,2.19,2.1894,2.189,2.215,2.2163,2.2176,0,0,0,0,0,0,0,0,0,0,0,0,0,2.14,2.1177,2.168,2.1699,2.1703,2.1934,2.1938,2.1942,2.1906,2.19,2.1893,2.1887,2.2146,2.2162,2.2178,2.2407,0,0,2.2228,2.2235,0,0,0,0,0,0,0,0,2.1387,2.1419,2.1693,2.1698,2.1703,2.1881,2.1852,2.2098,2.1908,2.1829,2.1891,2.1884,2.2068,2.209,2.2152,2.2419,2.243,2.2229,2.2239,2.2246,2.2251,0,0,0,0,0,0,0,2.1371,2.1408,2.1781,2.1697,2.1703,2.1694,2.1721,2.1898,2.1981,2.1835,2.1833,2.1864,2.207,2.2137,2.2158,2.2434,2.2229,2.2243,2.2254,2.226,2.2902,2.2909,0,0,0,0,0,0,2.1349,2.1395,2.1773,2.1789,2.1526,2.1709,2.1738,2.183,2.1979,2.1996,2.1869,2.1861,2.2112,2.2139,2.2167,2.2447,2.2246,2.2262,2.2271,2.2895,2.2904,2.2911,0,0,0,0,0,0,2.1338,2.1383,2.1763,2.1591,2.1639,2.1724,2.1828,2.1839,2.1906,2.2005,2.2019,2.1922,2.2108,2.2144,2.2348,2.2455,2.2269,2.2284,2.2886,2.2898,2.2908,2.3007,0,0,0,0,0,0,2.1324,2.138,2.1468,2.1594,2.1648,2.194,2.1835,2.1848,2.1934,2.1926,2.2058,2.2074,2.2105,2.2323,2.2364,2.2475,2.2297,2.2877,2.2891,2.2904,2.2995,2.302,2.3042,0,0,0,0,0,2.1305,2.1486,2.1473,2.1518,2.176,2.1946,2.1977,2.2009,2.1943,2.2032,2.2095,2.207,2.2436,2.2344,2.239,2.2507,2.2871,2.2887,2.2903,2.2984,2.3015,2.3041,0,0,0,0,0,0,2.1372,2.1503,2.149,2.1716,2.182,2.1939,2.2054,2.2041,2.2166,2.2154,2.2187,2.2218,2.2424,2.2485,2.2381,2.2737,2.2644,2.267,2.269,2.2721,2.2744,2.2726,2.231,0,0,0,0,0,2.1413,2.1552,2.1659,2.1849,2.1901,2.1968,2.205,2.2065,2.2175,2.2219,2.2297,2.2404,2.2543,2.2634,2.2768,2.3001,2.3031,2.3104,2.3128,2.3147,2.317,2.3299,2.3334,2.2965,2.2965,2.2964,0,0,2.15,2.1588,2.1674,2.1864,2.1947,2.2091,2.2006,2.2162,2.2269,2.2242,2.244,2.2501,2.2622,2.2842,2.2943,2.29,2.3278,2.3167,2.3182,2.3195,2.332,2.3354,2.3386,2.2976,2.2974,2.2972,0,0,2.1732,2.1812,2.1979,2.2063,2.2188,2.2231,2.2271,2.2392,2.2431,2.2629,2.2612,2.2739,2.2978,2.3066,2.3142,2.3404,2.3386,2.3446,2.3571,2.3696,2.3725,2.3751,2.3847,2.3881,2.3468,2.3468,2.3469,0,2.1824,2.2041,2.2067,2.2226,2.231,2.229,2.2461,2.254,2.2703,2.2762,2.2709,2.3008,2.3089,2.333,2.3393,2.3454,2.3502,2.3434,2.3719,2.3745,2.377,2.3862,2.3898,2.3475,2.3474,2.3474,2.3473,0,2.2149,2.2299,2.2419,2.2576,2.2673,2.2837,2.2888,2.2984,2.2989,2.3037,2.3239,2.3334,2.3487,2.3544,2.3551,2.3786,2.3755,2.3711,2.3619,2.3812,2.3899,2.3934,2.3485,2.3482,2.348,2.3479,0,0,2.2435,2.2602,2.2647,2.2718,2.2853,2.2969,2.3131,2.3279,2.3361,2.3472,2.361,2.3811,2.377,2.3856,2.3872,2.3982,2.4186,2.3924,2.3927,2.3972,2.4452,2.4488,2.4528,2.4172,2.4179,2.4184,2.4443,0,2.2683,2.297,2.2997,2.3254,2.3394,2.3375,2.3516,2.3614,2.3662,2.3787,2.384,2.3983,2.3917,2.3969,2.4076,2.4138,2.4283,2.4119,2.4303,2.4309,2.4277,2.4573,2.4612,2.4852,2.4477,2.4483,2.4487,0,2.3012,2.3133,2.3403,2.3518,2.3578,2.3704,2.3842,2.3961,2.4072,2.4099,2.4194,2.4195,2.4361,2.4259,2.449,2.4378,2.4453,2.4495,2.4505,2.4527,2.4413,2.4607,2.4929,2.4966,2.454,2.4536,2.4532,0,2.3197,2.3427,2.3619,2.368,2.3818,2.3907,2.3969,2.4072,2.416,2.4279,2.4336,2.4474,2.455,2.4656,2.4694,2.4616,2.4924,2.4825,2.4953,2.4953,2.5023,2.5019,2.5366,2.5065,2.5064,2.5064,2.5063,0,2.3474,2.3641,2.3704,2.3823,2.4009,2.4038,2.4222,2.4279,2.4371,2.45,2.449,2.4612,2.4653,2.4781,2.4811,2.4999,2.5032,2.506,2.5067,2.5064,2.5061,2.5117,2.5103,2.5073,2.5071,2.5069,2.5068,0,2.3715,2.3764,2.3972,2.4085,2.4117,2.425,2.4346,2.446,2.4504,2.4668,2.4708,2.4779,2.493,2.4976,2.5158,2.5178,2.5398,2.5388,2.5362,2.5363,2.549,2.5479,2.5889,2.5945,2.5604,2.5607,2.5609,0,2.3891,2.4019,2.4145,2.423,2.4295,2.4433,2.4522,2.4553,2.4646,2.478,2.4879,2.5027,2.5148,2.5389,2.5457,2.5595,2.5591,2.5724,2.5612,2.5604,2.5597,2.559,2.5604,2.5747,2.5751,2.5754,2.5756,0,2.4198,2.4215,2.4343,2.4479,2.4585,2.4694,2.4799,2.4869,2.4916,2.502,2.5174,2.5267,2.5452,2.56,2.574,2.5803,2.5789,2.579,2.5828,2.5828,2.5809,2.5824,2.5423,2.5782,2.5779,2.5778,2.5776,2.5775,2.4415,2.4528,2.4634,2.4776,2.4858,2.4956,2.5069,2.5126,2.5255,2.5408,2.5417,2.5584,2.5689,2.5876,2.5946,2.6076,2.6038,2.6092,2.6106,2.612,2.6131,2.5784,2.6101,2.6101,2.61,2.6099,2.6099,0,2.4724,2.479,2.4921,2.5068,2.518,2.5153,2.5267,2.5363,2.5509,2.5608,2.5727,2.5903,2.6045,2.6123,2.6265,2.6355,2.6352,2.6391,2.6387,2.6402,2.6156,2.6111,2.6392,2.6392,2.6391,2.6391,2.6391,2.6391,2.4899,2.509,2.5119,2.5349,2.5414,2.5577,2.5644,2.5734,2.5814,2.6011,2.6129,2.6178,2.6268,2.6417,2.6546,2.6565,2.662,2.6664,2.668,2.6449,2.642,2.6391,2.6349,2.6675,2.6675,2.6915,2.6917,2.6919]}]]